Malaysia Virtual Airlines Airport Information Service

Brisbane Airport

ICAO: YBBN Country: Australia
Latitude: -27.3842 Longitude: 153.117
Latest Arrival : MH135 (WMKK-YBBN) Latest Departure : MH134 (YBBN-WMKK)


WX CaptureLIVE
Data provided by noaa.gov | Fetched at 16:27:33

METAR : YBBN 261600Z 25004KT CAVOK 09/05 Q1021

TAF : YBBN 261408Z 2615/2718 22005KT CAVOK FM270200 02010KT 9999 FEW040 FM271000 35007KT 9999 FEW035 FM271500 22005KT CAVOK


Runway Data for YBBN
Data provided by openaviationdata.com

Runway ID Mag Var Hdg Length Elevation Surface ILS Freq ILS Id ILS Slope
1 11 15° 11709 ft 13 ft Asphalt 109.5 IBA 3
14 11 134° 5785 ft 13 ft Asphalt -- -- --
19 11 195° 11709 ft 13 ft Asphalt 110.1 IBS 3
32 11 314° 5785 ft 13 ft Asphalt -- -- --

Brisbane Airport, Australia
Use only for reference purposes



Not for navigational purposes.